Whiteman AFB, MO

6:04 AM CST on November 13, 2019 (GMT -0600)
Whiteman Air Force Base

Weather History for KSZL - May, 2019

Change the Weather History Date:

Thursday, May 9, 2019

  Actual Average Record
Temperature  
Mean Temperature 54 °F -  
Max Temperature 62 °F 72 °F 90 °F (2011)
Min Temperature 46 °F 52 °F 46 °F (1997)
Degree Days  
Heating Degree Days 11    
Growing Degree Days 4 (Base 50)    
Moisture  
Dew Point 48 °F    
Average Humidity 88    
Maximum Humidity 100    
Minimum Humidity 70    
Precipitation  
Precipitation 0.01 in - - ()
Sea Level Pressure  
Sea Level Pressure 29.87 in    
Wind  
Wind Speed 10 mph (NW)    
Max Wind Speed 17 mph    
Max Gust Speed 24 mph    
Visibility 10 miles    
Events Rain    
Averages and records for this station are not official NWS values.
T = Trace of Precipitation, MM = Missing Value Source: NWS Daily Summary

Daily Weather History Graph

Daily Weather History Graph

Search for Another Location

Airport or City:

Astronomy

May. 09, 2019 Rise Set
Actual Time 6:08 AM CDT 8:13 PM CDT
Civil Twilight 5:38 AM CDT 8:43 PM CDT
Nautical Twilight 5:02 AM CDT 9:19 PM CDT
Astronomical Twilight 4:23 AM CDT 9:58 PM CDT
Moon 10:04 AM CDT (5/9) 12:12 AM CDT (5/9)
Length of Visible Light 15h 04m
Length of Day
14h 05m
Waxing Crescent, 25% of the Moon is Illuminated
May 9
Waxing Crescent
May 11
First Quarter
May 18
Full
May 26
Last Quarter
Jun 3
New

Hourly Weather History & Observations

Time (CDT) Temp. Dew Point Humidity Pressure Visibility Wind Dir Wind Speed Gust Speed Precip Events Conditions
12:56 AM 61.5 °F 61.5 °F 100% 29.67 in 10.0 mi SW 5.8 mph - N/A   Overcast
1:36 AM 62.6 °F 62.6 °F 100% 29.65 in 10.0 mi SW 5.8 mph - N/A   Mostly Cloudy
1:41 AM 62.6 °F 62.6 °F 100% 29.65 in 10.0 mi SW 5.8 mph - N/A   Mostly Cloudy
1:56 AM 62.2 °F 62.2 °F 100% 29.65 in 10.0 mi WSW 6.9 mph - N/A   Overcast
2:38 AM 60.8 °F 60.8 °F 100% 29.68 in 10.0 mi NW 13.8 mph 19.6 mph N/A Rain Light Rain
2:56 AM 59.4 °F 59.4 °F 100% 29.68 in 10.0 mi NNW 11.5 mph - 0.01 in   Light Drizzle
3:07 AM 59.0 °F 59.0 °F 100% 29.68 in 10.0 mi NW 16.1 mph 20.7 mph N/A   Overcast
3:56 AM 53.6 °F 53.6 °F 100% 29.72 in 10.0 mi NW 17.3 mph 24.2 mph 0.00 in   Overcast
4:56 AM 52.2 °F 51.8 °F 99% 29.75 in 10.0 mi NW 12.7 mph - N/A   Light Drizzle
5:12 AM 51.8 °F 51.8 °F 100% 29.76 in 10.0 mi NW 11.5 mph - N/A   Overcast
5:40 AM 50.0 °F 50.0 °F 100% 29.78 in 9.0 mi NNW 11.5 mph - N/A Rain Light Rain
5:56 AM 50.4 °F 50.4 °F 100% 29.78 in 8.0 mi NNW 9.2 mph 18.4 mph 0.00 in   Light Drizzle
6:56 AM 48.7 °F 48.7 °F 100% 29.83 in 10.0 mi NNW 11.5 mph - 0.00 in   Overcast
7:56 AM 48.2 °F 46.4 °F 93% 29.84 in 10.0 mi NNW 13.8 mph 19.6 mph N/A   Overcast
8:11 AM 48.2 °F 46.4 °F 93% 29.87 in 10.0 mi NNW 13.8 mph 17.3 mph N/A   Overcast
8:56 AM 47.7 °F 45.7 °F 93% 29.87 in 10.0 mi NNW 13.8 mph - N/A   Overcast
9:56 AM 46.9 °F 44.4 °F 91% 29.89 in 10.0 mi NW 11.5 mph - N/A   Overcast
10:56 AM 47.3 °F 43.0 °F 85% 29.92 in 10.0 mi NNW 12.7 mph - N/A   Overcast
11:26 AM 48.2 °F 42.8 °F 82% 29.92 in 10.0 mi NNW 9.2 mph - N/A   Overcast
11:56 AM 48.2 °F 42.1 °F 79% 29.93 in 10.0 mi WNW 9.2 mph - N/A   Overcast
12:56 PM 47.7 °F 42.1 °F 81% 29.93 in 10.0 mi NNW 11.5 mph - N/A   Overcast
1:56 PM 48.0 °F 40.8 °F 76% 29.95 in 10.0 mi West 12.7 mph - N/A   Overcast
2:56 PM 49.6 °F 41.7 °F 74% 29.97 in 10.0 mi WNW 11.5 mph 17.3 mph N/A   Overcast
4:15 PM 50.0 °F 41.0 °F 71% 29.96 in 10.0 mi NW 12.7 mph 17.3 mph N/A   Light Drizzle
4:30 PM 48.2 °F 41.0 °F 76% 29.96 in 10.0 mi NW 11.5 mph - N/A   Overcast
4:56 PM 49.3 °F 39.9 °F 70% 29.97 in 10.0 mi NW 10.4 mph - N/A   Overcast
5:56 PM 48.9 °F 39.6 °F 70% 29.99 in 10.0 mi NW 9.2 mph - N/A   Overcast
6:56 PM 48.6 °F 39.9 °F 72% 30.01 in 10.0 mi NW 10.4 mph - N/A   Overcast
7:56 PM 48.2 °F 40.3 °F 74% 30.02 in 10.0 mi NNW 8.1 mph - N/A   Overcast
8:11 PM 48.2 °F 41.0 °F 76% 30.02 in 10.0 mi NNW 9.2 mph - N/A   Overcast
8:56 PM 47.8 °F 41.4 °F 78% 30.04 in 10.0 mi NNW 4.6 mph - N/A   Overcast
9:56 PM 48.2 °F 41.0 °F 76% 30.05 in 10.0 mi NNW 4.6 mph - N/A   Overcast
10:56 PM 47.8 °F 41.9 °F 80% 30.10 in 10.0 mi WNW 3.5 mph - N/A   Overcast
11:56 PM 47.1 °F 44.1 °F 89% 30.11 in 10.0 mi WNW 4.6 mph - N/A   Overcast